RH
46 64 81 96 97 97 97 96 93 99 97 85 84 87 82 90 85 84 74 71 70 63 51 38 34 32 30 41 44 37 34 37 44 59 65 64 63 61 58 52 48 48 45 41 40 45 50 22 23 27 32 28 35 38
97 97 88 64 98 97 92 98 99 90 81 79 80 80 77 88 86 80 83 72 60 58 57 53 33 28 29 43 44 36 34 32 45 58 62 62 64 61 58 59 51 52 44 39 37 37 26 27 30 32 31 33 43 51
97 98 98 97 98 98 93 90 88 81 76 72 73 73 72 76 81 82 83 70 59 52 57 61 49 32 30 41 52 45 45 45 54 53 61 63 64 61 62 59 54 46 42 40 33 27 27 33 35 36 37 38 38 44
97 98 98 97 92 90 86 81 77 72 64 63 67 69 68 68 72 74 72 65 57 53 72 60 51 37 56 41 44 49 49 61 62 64 66 65 65 61 59 52 48 46 42 34 31 34 39 39 40 45 48 50 52 52
98 99 96 96 97 99 96 85 75 71 65 58 58 62 68 74 77 76 74 71 79 91 81 57 44 59 76 70 68 67 65 68 70 68 68 68 67 67 65 64 57 40 34 40 43 40 47 50 53 54 57 59 60 60
94 94 94 91 93 96 92 80 74 65 58 57 54 56 61 66 68 79 96 68 76 92 89 73 72 83 77 67 61 69 76 75 73 69 66 72 74 77 64 42 35 37 40 41 46 53 57 59 61 59 56 55 55 57
86 89 89 93 95 98 96 94 81 81 73 69 64 58 57 56 63 73 76 71 87 93 78 80 72 72 70 76 83 83 79 76 74 74 74 68 59 49 54 50 40 41 44 47 53 60 64 66 67 68 66 66 68 72
88 84 88 94 97 99 100 99 92 81 72 59 57 61 67 70 68 72 76 83 76 63 64 62 69 70 73 74 77 74 76 76 79 66 51 46 48 53 58 40 42 44 49 54 62 72 76 78 73 71 73 80 99 99
93 90 92 82 80 89 97 99 100 98 96 88 79 76 75 85 76 74 74 79 60 50 44 40 39 48 64 68 69 71 63 59 45 47 45 50 51 50 41 44 49 54 62 72 80 84 79 72 75 85 97 100 100 99
94 93 96 99 90 89 98 99 90 100 93 91 88 82 82 80 72 66 63 60 55 50 45 42 40 36 35 44 44 45 43 46 46 42 42 48 47 40 42 48 58 71 79 83 78 76 84 89 100 100 100 98 98 97
97 97 97 96 97 93 94 82 69 70 96 82 83 79 76 82 68 60 52 48 44 42 42 36 32 32 31 38 38 43 46 48 54 52 56 55 52 44 44 53 62 74 81 85 87 96 100 100 100 99 98 97 95 91
98 98 96 96 97 90 89 80 75 74 86 84 72 74 66 60 63 60 54 48 48 44 38 35 36 40 42 45 47 51 53 54 59 59 63 60 51 53 61 70 80 85 87 88 89 97 100 99 98 96 92 83 63 37
100 96 96 97 96 95 96 91 93 86 72 73 71 69 69 70 66 63 59 53 49 48 46 45 48 50 51 54 57 58 60 70 66 73 74 63 66 75 80 89 92 88 89 92 96 100 99 95 88 78 65 49 33 21
100 100 98 98 99 98 97 97 98 95 91 79 76 78 74 76 75 73 63 56 51 50 49 50 50 54 54 60 64 64 80 83 93 98 87 72 78 96 100 98 97 98 100 100 98 95 88 79 76 76 65 41 25 22
98 97 96 97 98 99 98 97 97 98 98 97 96 96 89 68 66 65 65 63 60 59 58 56 57 59 63 72 76 84 92 99 100 99 83 84 91 98 98 97 98 98 96 93 81 77 78 81 74 63 45 29 24 22
98 96 97 97 96 95 97 98 98 97 96 95 81 75 72 65 63 61 64 65 61 62 63 67 74 82 83 85 90 94 100 97 92 86 92 94 91 92 96 98 97 96 95 93 88 78 75 74 62 41 29 26 24 26
96 98 98 98 96 96 90 98 100 97 98 98 89 78 78 72 72 70 68 69 73 77 90 94 90 90 95 97 97 98 96 93 95 93 88 89 98 100 98 97 98 100 100 96 76 71 79 68 43 29 26 28 33 35
91 95 96 99 99 99 99 100 99 98 97 94 91 92 90 92 84 87 93 100 100 97 98 97 93 96 96 96 96 93 91 91 90 87 90 98 98 97 98 98 95 82 66 70 86 78 57 45 34 31 32 34 38 43
31 47 70 53 86 96 96 97 96 95 96 96 97 96 96 94 95 94 90 87 93 99 99 97 96 98 98 97 96 94 90 88 87 91 99 98 97 97 96 96 96 98 93 68 64 56 45 38 38 39 44 47 51 46
11 19 29 42 43 44 45 78 58 62 94 94 88 93 93 91 94 96 96 96 96 97 98 96 94 92 86 80 75 73 71 68 70 76 86 98 97 100 99 92 74 59 63 62 54 43 42 46 54 57 60 55 40 29
8 7 7 9 9 9 28 39 34 55 80 95 100 100 97 93 90 88 83 83 85 84 85 83 81 77 76 72 66 59 55 53 50 49 50 51 53 54 56 56 55 56 53 44 45 49 61 63 65 63 47 30 22 19
8 8 7 7 6 7 12 19 33 41 62 82 94 91 93 91 80 74 74 70 70 71 69 67 64 60 60 61 63 63 62 60 60 60 62 63 62 61 56 54 49 47 50 59 70 71 69 70 57 33 25 22 20 15
6 6 6 6 6 10 26 22 25 27 52 65 82 79 80 76 69 76 74 66 65 66 73 74 69 68 68 70 71 70 68 69 67 66 65 60 54 51 50 52 57 68 74 74 75 78 66 36 26 24 24 18 14 17
4 4 4 5 7 15 16 23 27 38 50 53 57 61 59 60 62 76 77 70 68 74 79 81 83 82 85 87 89 89 88 84 80 71 66 63 62 64 68 76 80 78 80 84 71 37 29 28 28 22 16 17 20 22
6 9 11 13 17 25 30 32 29 40 65 68 68 82 84 80 81 80 73 71 72 78 86 92 96 98 98 98 98 97 96 94 88 90 90 88 89 90 85 82 86 89 73 39 32 32 33 28 18 17 20 22 24 27
12 18 20 32 41 49 61 71 67 66 70 79 88 89 91 96 98 94 82 80 88 91 96 100 100 98 98 98 97 97 97 96 93 90 87 86 88 93 92 89 65 39 34 37 39 32 21 18 20 24 27 28 29 30
30 45 53 61 61 47 54 64 72 66 70 83 89 90 96 98 99 97 92 91 86 86 88 94 97 98 98 97 97 96 96 94 91 91 93 96 95 82 56 40 38 45 45 36 23 19 20 23 27 30 33 32 31 34
58 73 76 73 73 73 70 76 79 84 83 89 91 96 98 96 97 96 97 98 98 98 97 96 96 97 97 97 98 100 100 100 100 96 77 56 40 40 45 52 51 38 29 24 22 23 26 29 32 34 33 32 33 42
82 82 83 81 80 80 84 90 96 100 100 100 100 98 96 96 97 96 97 97 97 97 97 96 97 98 99 100 100 99 90 65 44 36 36 43 49 54 52 44 37 31 29 27 27 30 32 32 34 35 36 37 41 50
83 81 88 89 84 89 96 92 94 95 96 93 90 94 94 94 96 97 98 96 97 97 97 97 99 98 89 68 49 41 40 42 46 51 54 61 62 56 46 38 35 33 32 32 32 35 35 36 38 41 44 47 53 56
80 81 88 91 94 94 90 91 94 95 99 98 99 97 96 97 95 95 95 96 99 95 81 65 48 47 50 50 49 50 53 59 62 63 56 47 40 38 38 38 35 33 33 36 40 42 42 43 44 47 51 57 61 60
66 71 71 77 78 78 75 79 82 81 83 81 78 70 60 46 41 38 38 41 44 46 51 56 56 57 60 65 64 61 54 46 38 37 38 41 45 47 46 44 44 46 49 49 46 43 43 43 45 48 54 61 62 56
44 55 69 79 83 79 65 58 48 43 40 38 38 37 37 38 43 46 47 49 52 53 62 73 76 74 68 61 47 39 38 41 44 48 52 54 54 52 51 49 48 45 44 43 43 44 45 46 48 52 58 60 59 56
Wind_Speed
40 43 43 37 35 39 39 66 62 52 54 52 53 54 55 53 49 48 42 32 28 24 22 26 34 32 36 33 30 27 22 22 21 19 19 12 10 13 12 11 7 7 6 7 8 6 6 2 3 4 9 17 15 16
36 45 54 46 45 56 61 48 49 51 51 50 52 52 52 51 48 44 36 32 29 25 22 21 30 28 35 31 30 25 25 18 21 20 17 12 11 10 14 8 11 11 14 10 8 5 10 15 16 14 16 17 17 18
37 46 46 51 48 50 49 46 43 42 45 49 51 50 50 48 46 40 32 29 28 26 22 22 29 30 30 33 29 27 23 22 19 20 16 13 11 11 12 13 13 13 14 16 14 13 12 17 19 20 20 21 22 23
52 46 51 52 49 46 44 44 43 43 43 45 47 48 46 44 41 36 30 26 24 25 26 27 28 29 24 28 31 28 23 21 18 17 18 17 16 14 15 14 13 14 16 16 17 17 17 19 19 20 22 23 25 26
53 51 49 45 42 40 39 39 39 40 41 42 45 45 44 41 39 34 29 28 24 23 19 30 30 28 25 24 23 22 21 19 19 18 18 18 19 17 16 16 17 16 18 17 17 17 17 21 22 24 25 26 24 25
47 46 43 41 39 38 38 37 36 38 39 39 39 39 40 39 37 31 26 28 29 8 14 30 31 29 25 21 20 22 21 19 20 20 19 19 17 16 11 13 16 17 17 17 19 20 22 23 23 23 23 24 25 24
41 40 37 34 33 35 34 34 34 34 35 35 35 36 36 35 36 33 23 22 30 11 9 22 27 26 27 27 26 22 20 19 19 18 19 19 18 16 17 17 19 20 20 21 21 22 22 21 22 24 24 23 22 22
36 35 33 31 28 36 37 36 34 38 33 34 35 35 34 33 33 27 25 19 16 15 15 12 14 24 24 23 21 20 20 18 19 19 19 18 17 18 15 20 21 21 20 21 21 20 21 24 24 23 22 19 17 17
30 29 28 30 25 29 38 39 37 35 34 34 34 34 32 33 35 31 22 20 20 17 13 10 13 15 23 22 21 20 20 19 19 19 20 18 18 14 21 20 21 22 22 22 23 24 24 21 19 18 17 16 17 18
28 25 22 23 26 23 24 36 40 38 37 38 36 34 31 29 28 21 22 28 23 19 16 14 17 14 15 20 20 18 16 14 12 16 18 20 21 23 24 24 24 23 23 22 19 17 17 16 16 14 12 13 12 10
23 23 18 17 24 27 29 25 24 17 41 37 34 30 28 24 24 23 16 19 13 14 19 17 16 18 17 16 17 13 9 7 6 12 14 11 16 19 20 21 20 18 16 14 14 13 13 12 11 11 9 8 7 8
16 18 17 17 22 21 32 31 27 27 30 28 23 25 30 26 14 8 15 14 11 12 16 21 19 17 17 15 14 11 12 7 7 11 9 8 17 20 18 15 14 14 13 12 9 8 8 9 9 7 5 6 7 8
18 13 14 14 16 25 33 33 30 29 30 25 31 29 21 12 9 10 13 13 12 12 18 17 18 17 16 16 11 8 8 9 9 7 8 15 16 14 13 13 11 9 7 6 6 6 6 4 4 5 6 8 10 11
22 23 18 15 17 25 24 32 32 31 26 27 22 18 10 8 9 9 17 17 17 14 15 16 19 15 16 12 9 6 9 7 6 8 12 15 12 11 8 7 6 6 6 6 6 5 5 5 6 8 10 12 13 15
24 24 21 18 19 20 25 21 16 18 23 18 11 7 11 11 16 13 15 15 16 17 17 17 17 15 12 8 7 8 6 6 8 9 7 5 6 7 8 9 10 10 9 7 5 5 7 9 12 14 16 17 19 22
24 20 22 23 22 21 21 20 16 15 16 10 7 9 13 13 13 16 18 17 16 15 14 14 13 7 10 7 8 9 6 6 6 5 4 5 6 9 10 12 12 10 8 8 9 9 11 14 17 18 19 21 24 27
17 22 25 22 23 21 20 20 18 18 12 8 13 15 10 11 16 17 15 15 14 16 17 10 7 9 6 6 7 7 7 7 6 5 5 5 6 10 12 11 9 9 9 10 12 15 18 20 21 22 24 25 28 32
13 14 17 21 25 26 25 25 25 11 9 14 15 15 15 15 16 16 15 13 12 14 15 12 9 11 6 6 8 6 5 5 5 3 2 6 11 12 12 11 9 8 11 14 17 20 21 22 24 25 28 31 34 38
9 10 12 11 10 11 19 13 9 12 16 15 18 15 14 13 13 12 10 10 10 11 12 11 6 8 9 8 7 6 5 6 4 5 8 12 13 11 11 13 14 12 15 18 20 22 23 24 27 30 33 36 41 44
13 11 11 11 12 11 8 7 8 8 10 11 10 12 11 11 11 10 10 11 11 10 10 9 9 7 5 5 5 4 5 5 5 6 9 12 11 11 13 15 18 19 20 21 23 24 26 29 31 34 38 42 45 47
13 13 12 11 8 5 9 9 8 12 16 15 14 13 12 12 11 10 9 9 8 8 7 7 5 5 6 5 5 4 5 6 7 8 9 11 13 15 17 19 20 21 22 23 25 27 29 32 35 39 42 44 46 47
7 8 8 8 8 10 9 9 10 12 10 15 14 12 12 11 10 9 8 8 8 8 7 7 7 7 7 8 8 8 8 9 10 12 13 14 16 18 19 19 20 21 23 25 27 30 33 37 39 41 43 44 46 44
4 4 3 4 5 5 8 8 9 8 7 11 11 10 10 10 9 10 9 9 10 10 10 10 10 10 11 11 12 12 12 13 14 15 16 17 17 18 19 20 21 23 26 28 30 34 37 39 40 41 43 42 40 39
4 1 4 3 4 6 6 5 5 5 6 6 6 6 6 8 9 12 12 12 12 13 13 14 15 15 15 15 15 16 16 16 16 16 16 17 18 19 20 22 24 25 28 32 35 36 37 38 40 40 38 37 36 34
4 4 6 7 6 6 5 6 4 3 2 0 2 3 3 5 6 8 9 11 12 13 15 16 16 16 16 15 15 15 15 15 15 16 17 18 18 20 21 24 27 30 32 33 34 35 37 38 36 35 35 34 32 31
7 7 5 6 8 7 6 7 7 6 3 2 1 2 4 6 7 6 8 11 13 13 13 15 15 15 15 16 17 16 15 15 16 16 17 18 20 23 26 29 31 31 32 33 35 36 35 33 33 32 32 31 30 30
10 9 9 8 6 4 3 2 2 3 4 1 2 2 3 4 5 9 9 10 9 9 10 10 11 12 13 14 14 14 14 14 15 17 19 22 25 27 28 29 29 31 34 36 35 33 32 31 31 31 30 29 29 28
7 5 2 2 2 2 1 1 2 2 2 2 2 3 3 3 5 8 8 8 8 7 7 8 8 10 11 12 13 14 16 17 20 22 24 25 26 26 28 30 32 34 33 32 32 31 31 30 30 29 28 28 27 28
2 2 2 1 0 0 1 2 2 0 2 4 5 6 6 6 6 4 4 3 3 4 5 6 7 9 11 14 16 18 20 22 23 23 24 25 27 29 31 32 33 32 32 31 31 30 30 30 29 29 28 27 27 28
3 3 3 3 2 3 3 2 0 2 1 2 3 3 4 4 4 3 3 4 6 8 10 12 13 15 16 17 18 19 20 20 22 24 25 27 28 30 32 32 32 32 31 31 31 31 30 30 29 28 28 27 27 28
7 6 6 6 5 3 2 1 2 1 1 2 2 4 6 8 9 10 11 12 13 14 15 16 16 16 17 17 17 19 21 23 24 25 27 29 31 32 32 33 34 33 32 31 30 29 28 27 27 27 27 27 27 28
2 1 1 1 2 2 2 3 4 5 6 7 9 10 11 12 13 15 15 14 14 14 15 16 15 14 15 17 19 21 23 25 27 28 30 31 33 33 33 32 31 30 29 28 28 27 27 27 27 27 27 27 27 27
4 3 3 3 3 4 5 6 7 8 9 10 12 14 16 16 15 15 13 12 12 12 12 13 14 16 18 20 22 24 26 28 30 31 31 30 30 30 29 29 28 28 28 28 28 28 28 28 28 27 26 26 25 25
Wind_Direction
167 174 176 175 152 147 167 151 157 159 163 165 167 171 174 175 178 182 185 181 190 192 192 201 207 207 202 204 209 209 207 211 206 207 214 217 225 220 227 226 229 235 233 229 235 231 269 255 281 299 290 297 296 291
134 134 139 150 141 142 154 154 152 157 162 165 168 171 174 177 181 184 188 187 188 195 197 195 203 205 204 205 209 212 221 228 212 207 211 217 223 219 229 233 241 246 239 250 239 245 277 289 298 291 287 285 280 278
123 130 122 128 134 131 135 143 148 155 163 167 170 172 175 179 184 187 188 193 195 199 203 204 198 200 200 203 208 216 217 221 222 221 225 230 224 230 234 249 258 260 266 260 273 283 285 288 286 285 284 282 279 276
136 130 122 119 127 133 140 146 153 157 161 166 170 173 177 180 185 187 187 196 198 201 203 199 197 191 196 202 208 215 222 223 223 218 230 242 243 251 249 255 258 269 278 282 285 288 287 286 286 287 287 287 286 284
121 121 125 128 132 135 140 145 151 155 160 165 170 173 176 181 185 189 194 198 198 192 193 191 187 193 192 191 195 200 210 208 215 226 235 241 249 253 259 263 267 273 274 276 280 285 282 283 286 288 290 290 289 289
123 126 128 130 132 136 139 143 147 151 155 158 163 169 175 180 184 181 191 204 210 148 176 189 188 186 186 195 208 205 203 214 229 237 243 243 249 255 256 253 271 272 273 276 280 282 284 286 289 290 291 292 293 292
127 127 126 128 131 133 133 142 146 146 153 157 164 169 174 178 178 182 194 192 167 153 177 191 191 193 196 198 195 201 213 223 232 238 242 250 255 253 253 262 278 278 279 280 280 282 284 287 290 291 291 289 287 290
130 130 135 140 140 136 138 139 144 146 148 152 155 159 163 170 176 184 191 179 181 172 176 183 185 195 197 201 205 214 223 230 238 244 248 251 252 254 259 273 274 275 275 276 277 281 284 290 291 289 289 291 294 284
135 134 139 131 138 152 147 140 138 138 145 152 157 161 166 169 174 177 182 183 191 190 195 170 174 195 200 204 212 220 229 237 245 246 250 253 255 250 269 269 268 267 268 273 278 284 288 289 290 292 295 294 280 270
143 145 149 162 155 146 162 158 157 145 150 155 155 158 161 168 171 168 179 185 190 198 203 208 208 200 192 204 211 220 229 233 236 245 252 248 250 261 262 263 262 265 271 278 282 285 289 292 304 303 290 281 269 272
162 160 150 163 159 139 132 143 145 147 170 157 155 158 157 164 169 172 173 183 182 190 204 206 199 201 202 202 212 215 224 223 232 243 240 243 248 262 264 264 267 272 278 282 285 287 289 286 281 269 254 269 298 330
151 147 135 138 160 161 165 149 150 147 143 151 158 159 161 159 164 173 168 167 176 185 193 201 201 205 214 217 218 226 232 230 229 237 232 245 256 257 258 261 265 272 279 281 280 280 268 253 247 261 289 316 319 311
164 168 165 162 169 184 176 164 153 163 166 165 159 157 166 166 169 168 173 177 184 185 201 203 208 220 224 227 223 217 216 219 234 216 223 246 257 260 255 260 267 275 278 283 279 242 229 243 270 294 301 303 304 302
170 179 184 176 182 189 177 182 174 170 170 169 169 169 174 180 192 182 187 197 203 202 203 214 220 221 225 217 211 210 222 223 224 230 239 257 258 259 260 272 278 281 257 237 241 248 267 278 282 294 304 308 307 307
185 185 182 178 172 176 181 181 189 184 195 195 186 187 182 168 183 196 194 203 199 200 204 211 219 221 216 207 206 210 203 216 215 224 250 244 227 226 243 249 249 234 230 231 230 246 269 284 297 304 307 308 309 309
180 189 195 191 183 180 181 182 190 179 174 155 164 172 178 184 173 179 190 199 205 212 217 220 221 212 213 211 202 205 206 211 229 227 229 233 236 233 240 230 225 232 227 228 247 270 285 296 301 303 303 304 307 309
164 184 184 194 194 197 205 207 205 211 208 198 192 195 184 191 194 198 207 217 222 220 216 207 210 207 206 208 204 203 219 233 257 275 269 232 215 217 225 233 236 231 241 264 280 286 291 295 299 301 303 306 305 306
74 122 154 181 194 198 189 187 192 197 179 180 184 194 197 199 202 204 206 205 210 207 203 207 202 198 195 201 206 211 220 259 271 267 226 217 224 231 235 227 224 253 269 277 281 287 292 296 299 302 303 304 306 309
105 94 88 87 113 155 174 156 161 120 121 135 133 132 139 150 159 163 170 180 191 197 207 215 221 218 220 223 230 249 255 246 238 208 198 207 214 231 228 265 269 247 269 282 287 291 295 298 302 304 306 309 310 312
99 110 120 132 136 136 116 122 115 123 154 154 164 173 178 184 186 189 194 199 204 207 209 215 222 212 211 219 217 207 205 206 205 214 218 222 228 234 242 255 270 279 286 290 293 298 302 305 306 308 309 311 312 314
86 89 93 104 114 123 122 137 127 143 153 161 167 172 171 171 170 169 174 180 187 195 202 206 201 195 196 203 214 223 228 234 238 243 240 240 248 258 265 272 278 283 288 292 297 300 302 304 306 309 311 312 314 315
76 79 82 87 104 98 98 115 125 130 144 160 168 172 172 173 172 176 180 185 186 190 198 205 210 214 219 226 235 244 254 262 265 268 269 270 271 272 275 278 282 286 291 295 298 301 304 307 309 310 312 313 314 316
53 59 71 89 97 101 117 121 130 136 139 166 175 181 188 192 195 202 205 212 216 219 221 223 226 230 236 242 248 255 261 267 269 271 272 273 274 277 280 283 286 290 294 297 300 304 306 307 309 311 313 314 316 317
14 70 85 95 92 103 108 103 118 135 142 161 175 190 199 208 212 214 220 223 224 226 228 229 231 235 241 248 254 259 263 267 271 271 272 275 278 280 282 286 289 293 297 300 302 304 306 309 311 312 314 315 316 317
104 72 89 81 81 73 84 66 61 71 67 0 225 211 194 201 222 225 228 231 232 230 230 231 233 237 240 245 252 260 266 268 271 274 277 279 281 284 288 291 294 297 299 301 304 307 308 310 311 313 314 315 316 318
82 67 73 82 78 76 85 72 58 45 17 14 349 275 245 239 239 241 240 243 236 231 229 229 229 229 233 243 258 269 273 277 279 281 281 283 286 288 292 295 297 299 302 304 307 309 310 311 312 314 315 315 315 316
91 90 84 66 60 75 89 86 29 14 7 255 250 305 284 246 242 242 242 235 232 230 231 233 234 236 243 254 265 274 280 280 280 281 284 288 292 294 296 298 300 303 305 307 308 309 311 312 313 313 312 312 313 315
102 99 56 15 40 44 70 346 6 59 56 43 312 271 257 249 282 273 250 236 229 226 227 232 241 249 256 264 270 275 280 284 287 290 293 294 296 298 300 301 303 306 308 309 310 311 311 312 312 312 312 312 313 315
82 345 304 236 303 254 120 103 110 193 275 272 276 288 289 288 283 249 232 238 234 236 248 258 261 267 271 274 279 284 288 291 293 295 297 298 300 301 303 307 309 310 310 310 310 310 310 311 312 312 313 312 312 314
48 56 100 121 114 115 116 109 302 334 294 271 286 274 293 296 293 290 292 283 277 275 276 278 280 281 283 286 289 290 292 294 296 298 300 302 305 307 308 309 309 309 309 308 307 308 309 309 310 311 312 312 313 315
74 101 104 95 84 84 71 43 17 7 259 242 255 271 281 285 284 287 283 278 276 277 280 282 284 287 291 293 294 296 299 302 304 305 305 306 307 308 308 308 308 307 306 306 306 306 306 307 308 309 310 310 311 313
18 22 339 336 337 327 304 284 280 283 285 285 283 282 283 283 282 284 282 280 279 281 284 288 290 290 292 295 300 304 306 308 308 308 308 308 308 308 308 308 307 307 307 307 306 307 307 307 307 308 308 308 310 311
310 304 290 286 286 289 293 295 295 295 293 293 289 286 285 285 283 283 281 280 283 288 290 293 296 301 304 307 308 308 308 308 308 308 309 309 309 310 310 310 309 309 308 307 307 307 306 306 306 306 306 307 308 309